.
WxDataArchive / Data Records for 2012-01-26
2012-01-25 January 2012 2012-01-27

Data Records for Thursday, 26 January 2012

Time	Temp	Chill	HIndex	Humid	Dewpt	 Wind 	HiWind	WindDir	Rain 	Barom 
-----	----	-----	------	-----	-----	------	------	-------	-----	----- 
00:00	31.2	31.2	31.2	94	29.7	1	4	90	0.00	30.138 
00:05	31.2	31.2	31.2	94	29.7	1	3	90	0.00	30.138 
00:10	31.2	31.2	31.2	94	29.7	1	3	90	0.00	30.138 
00:15	31.2	31.2	31.2	94	29.7	1	3	90	0.00	30.136 
00:20	31.2	31.2	31.2	94	29.7	1	2	90	0.00	30.136 
00:25	31.2	31.2	31.2	94	29.7	1	3	90	0.00	30.136 
00:30	31.2	31.2	31.2	94	29.7	0	3	90	0.00	30.131 
00:35	31.2	31.2	31.2	94	29.7	1	3	90	0.00	30.131 
00:40	31.2	31.2	31.2	94	29.7	2	4	90	0.00	30.131 
00:45	31.2	31.2	31.2	94	29.7	1	3	90	0.00	30.122 
00:50	31.2	31.2	31.2	94	29.7	2	4	90	0.00	30.122 
00:55	31.2	31.2	31.2	94	29.7	2	5	90	0.00	30.122 
01:00	31.2	31.2	31.2	94	29.7	2	5	90	0.00	30.108 
01:05	31.2	31.2	31.2	94	29.7	3	6	90	0.00	30.108 
01:10	31.2	31.2	31.2	94	29.7	2	5	90	0.00	30.108 
01:15	31.2	31.2	31.2	94	29.7	2	5	90	0.00	30.099 
01:20	31.2	31.2	31.2	94	29.7	2	4	90	0.00	30.099 
01:25	31.2	31.2	31.2	94	29.7	1	4	90	0.00	30.099 
01:30	31.2	31.2	31.2	94	29.7	2	4	90	0.00	30.090 
01:35	31.2	31.2	31.2	94	29.7	2	4	90	0.00	30.090 
01:40	31.2	31.2	31.2	94	29.7	2	5	90	0.00	30.090 
01:45	31.2	31.2	31.2	94	29.7	3	5	112	0.00	30.081 
01:50	31.2	31.2	31.2	94	29.7	3	5	90	0.00	30.081 
01:55	31.0	31.0	31.0	94	29.5	3	6	90	0.00	30.081 
02:00	31.0	31.0	31.0	94	29.5	2	4	90	0.00	30.078 
02:05	31.2	31.2	31.2	94	29.7	2	6	45	0.00	30.078 
02:10	31.2	31.2	31.2	94	29.7	3	5	112	0.00	30.078 
02:15	31.2	31.2	31.2	94	29.7	2	4	112	0.00	30.070 
02:20	31.2	31.2	31.2	94	29.7	2	4	112	0.00	30.070 
02:25	31.2	31.2	31.2	94	29.7	2	5	112	0.00	30.070 
02:30	31.2	31.2	31.2	94	29.7	2	4	90	0.00	30.072 
02:35	31.2	31.2	31.2	94	29.7	2	4	90	0.00	30.072 
02:40	31.2	31.2	31.2	94	29.7	1	4	45	0.00	30.072 
02:45	31.2	31.2	31.2	94	29.7	1	3	45	0.00	30.071 
02:50	31.2	31.2	31.2	94	29.7	2	4	112	0.00	30.071 
02:55	31.2	31.2	31.2	94	29.7	2	4	90	0.00	30.071 
03:00	31.2	31.2	31.2	94	29.7	1	4	90	0.00	30.055 
03:05	31.3	31.3	31.3	94	29.8	2	6	90	0.00	30.055 
03:10	31.3	31.3	31.3	95	30.0	3	5	90	0.00	30.055 
03:15	31.3	31.3	31.3	95	30.0	2	5	112	0.00	30.041 
03:20	31.3	31.3	31.3	94	29.8	3	6	90	0.00	30.041 
03:25	31.3	31.3	31.3	95	30.0	1	5	90	0.00	30.041 
03:30	31.3	31.3	31.3	95	30.0	3	6	90	0.00	30.043 
03:35	31.3	31.3	31.3	95	30.0	2	5	90	0.00	30.043 
03:40	31.5	31.5	31.5	95	30.2	2	5	90	0.00	30.043 
03:45	31.5	31.5	31.5	95	30.2	1	6	90	0.00	30.043 
03:50	31.5	31.5	31.5	95	30.2	1	3	68	0.00	30.043 
03:55	31.5	31.5	31.5	95	30.2	1	4	90	0.00	30.043 
04:00	31.5	31.5	31.5	95	30.2	2	5	90	0.00	30.040 
04:05	31.5	31.5	31.5	95	30.2	2	4	90	0.00	30.040 
04:10	31.5	31.5	31.5	95	30.2	2	4	90	0.00	30.040 
04:15	31.5	31.5	31.5	95	30.2	1	5	90	0.00	30.030 
04:20	31.5	31.5	31.5	95	30.2	1	4	90	0.00	30.030 
04:25	31.5	31.5	31.5	95	30.2	0	3	90	0.00	30.030 
04:30	31.5	31.5	31.5	95	30.2	0	1	90	0.00	30.033 
04:35	31.5	31.5	31.5	95	30.2	0	2	90	0.00	30.033 
04:40	31.5	31.5	31.5	95	30.2	1	5	90	0.00	30.033 
04:45	31.5	31.5	31.5	95	30.2	2	5	112	0.00	30.017 
04:50	31.5	31.5	31.5	95	30.2	2	4	90	0.00	30.017 
04:55	31.5	31.5	31.5	95	30.2	2	6	90	0.00	30.017 
05:00	31.5	31.5	31.5	95	30.2	3	6	90	0.00	30.006 
05:05	31.3	31.3	31.3	95	30.0	1	5	90	0.00	30.006 
05:10	31.3	31.3	31.3	95	30.0	2	5	68	0.00	30.006 
05:15	31.3	31.3	31.3	95	30.0	3	5	112	0.00	30.000 
05:20	31.3	31.3	31.3	95	30.0	3	5	90	0.00	30.000 
05:25	31.3	31.3	31.3	95	30.0	3	7	90	0.00	30.000 
05:30	31.3	31.3	31.3	95	30.0	3	6	90	0.00	29.995 
05:35	31.3	31.3	31.3	95	30.0	2	6	90	0.00	29.995 
05:40	31.3	31.3	31.3	95	30.0	3	7	90	0.00	29.995 
05:45	31.3	31.3	31.3	95	30.0	2	6	90	0.00	29.983 
05:50	31.3	31.3	31.3	95	30.0	3	9	90	0.00	29.983 
05:55	31.3	31.3	31.3	95	30.0	1	4	112	0.00	29.983 
06:00	31.3	31.3	31.3	95	30.0	1	5	112	0.00	29.982 
06:05	31.3	31.3	31.3	95	30.0	3	6	90	0.00	29.982 
06:10	31.3	31.3	31.3	95	30.0	3	7	90	0.00	29.982 
06:15	31.3	31.3	31.3	95	30.0	3	7	90	0.00	29.964 
06:20	31.3	27.3	31.3	95	30.0	4	6	90	0.00	29.964 
06:25	31.3	31.3	31.3	95	30.0	3	9	90	0.00	29.964 
06:30	31.3	31.3	31.3	95	30.0	2	9	90	0.00	29.977 
06:35	31.3	31.3	31.3	95	30.0	2	8	90	0.00	29.977 
06:40	31.3	31.3	31.3	95	30.0	3	8	90	0.00	29.977 
06:45	31.3	31.3	31.3	95	30.0	3	6	112	0.00	29.980 
06:50	31.5	31.5	31.5	95	30.2	2	5	90	0.00	29.980 
06:55	31.5	31.5	31.5	95	30.2	1	4	68	0.00	29.980 
07:00	31.5	31.5	31.5	95	30.2	2	5	90	0.00	29.975 
07:05	31.6	31.6	31.6	95	30.3	1	4	90	0.00	29.975 
07:10	31.6	31.6	31.6	95	30.3	1	5	90	0.00	29.975 
07:15	31.6	31.6	31.6	95	30.3	2	6	90	0.00	29.961 
07:20	31.5	31.5	31.5	95	30.2	1	5	90	0.00	29.961 
07:25	31.5	31.5	31.5	95	30.2	3	6	90	0.00	29.961 
07:30	31.5	31.5	31.5	95	30.2	2	6	112	0.00	29.947 
07:35	31.5	27.5	31.5	95	30.2	4	8	90	0.00	29.947 
07:40	31.5	31.5	31.5	95	30.2	3	6	90	0.00	29.947 
07:45	31.5	31.5	31.5	95	30.2	2	7	90	0.00	29.933 
07:50	31.5	31.5	31.5	95	30.2	3	6	90	0.00	29.933 
07:55	31.5	31.5	31.5	95	30.2	2	7	112	0.00	29.933 
08:00	31.6	31.6	31.6	95	30.3	2	6	112	0.00	29.930 
08:05	31.6	31.6	31.6	95	30.3	2	5	112	0.00	29.930 
08:10	31.6	31.6	31.6	95	30.3	2	5	90	0.00	29.930 
08:15	31.6	31.6	31.6	95	30.3	2	6	90	0.00	29.927 
08:20	31.6	31.6	31.6	95	30.3	2	4	90	0.00	29.927 
08:25	31.6	31.6	31.6	95	30.3	3	5	90	0.00	29.927 
08:30	31.6	31.6	31.6	95	30.3	3	9	90	0.00	29.915 
08:35	31.6	31.6	31.6	95	30.3	3	6	90	0.00	29.915 
08:40	31.6	31.6	31.6	95	30.3	3	6	112	0.00	29.915 
08:45	31.6	26.6	31.6	95	30.3	5	8	90	0.00	29.902 
08:50	31.6	31.6	31.6	95	30.3	3	7	90	0.00	29.902 
08:55	31.8	31.8	31.8	95	30.5	3	6	90	0.00	29.902 
09:00	31.8	31.8	31.8	95	30.5	2	7	112	0.00	29.903 
09:05	31.8	31.8	31.8	95	30.5	3	9	90	0.00	29.903 
09:10	31.8	31.8	31.8	95	30.5	2	6	90	0.00	29.903 
09:15	31.8	31.8	31.8	95	30.5	3	6	90	0.00	29.902 
09:20	31.9	31.9	31.9	95	30.6	3	4	90	0.00	29.902 
09:25	31.9	31.9	31.9	95	30.6	3	6	90	0.00	29.902 
09:30	31.9	31.9	31.9	95	30.6	2	5	90	0.00	29.899 
09:35	31.9	31.9	31.9	95	30.6	2	6	90	0.00	29.899 
09:40	32.1	32.1	32.1	95	30.8	2	7	90	0.00	29.899 
09:45	32.1	32.1	32.1	95	30.8	1	3	90	0.00	29.900 
09:50	32.1	32.1	32.1	95	30.8	2	5	90	0.00	29.900 
09:55	32.1	32.1	32.1	95	30.8	2	5	112	0.00	29.900 
10:00	32.1	32.1	32.1	95	30.8	1	3	90	0.00	29.890 
10:05	32.1	32.1	32.1	95	30.8	3	7	112	0.00	29.890 
10:10	32.1	32.1	32.1	95	30.8	3	5	90	0.00	29.890 
10:15	32.1	32.1	32.1	95	30.8	1	3	90	0.00	29.878 
10:20	32.1	32.1	32.1	95	30.8	1	3	90	0.00	29.878 
10:25	32.1	32.1	32.1	95	30.8	1	3	90	0.00	29.878 
10:30	32.1	32.1	32.1	95	30.8	1	3	90	0.00	29.869 
10:35	32.1	32.1	32.1	95	30.8	1	4	68	0.00	29.869 
10:40	32.1	32.1	32.1	95	30.8	2	4	112	0.00	29.869 
10:45	32.1	32.1	32.1	95	30.8	1	4	112	0.00	29.866 
10:50	32.1	32.1	32.1	95	30.8	2	6	112	0.00	29.866 
10:55	32.1	32.1	32.1	95	30.8	2	5	112	0.00	29.866 
11:00	32.1	32.1	32.1	95	30.8	2	5	90	0.00	29.858 
11:05	32.1	32.1	32.1	95	30.8	2	5	112	0.00	29.858 
11:10	32.2	32.2	32.2	95	30.9	1	4	90	0.00	29.858 
11:15	32.2	32.2	32.2	95	30.9	2	6	90	0.00	29.852 
11:20	32.2	32.2	32.2	95	30.9	1	5	45	0.00	29.852 
11:25	32.2	32.2	32.2	95	30.9	2	4	112	0.00	29.852 
11:30	32.2	32.2	32.2	95	30.9	3	6	112	0.00	29.835 
11:35	32.1	32.1	32.1	95	30.8	2	10	112	0.00	29.835 
11:40	32.1	32.1	32.1	95	30.8	3	9	90	0.00	29.835 
11:45	32.1	32.1	32.1	96	31.1	3	6	90	0.00	29.808 
11:50	32.2	32.2	32.2	96	31.2	2	5	112	0.00	29.808 
11:55	32.2	32.2	32.2	95	30.9	1	4	112	0.00	29.808 
12:00	32.2	32.2	32.2	95	30.9	1	5	135	0.00	29.812 
12:05	32.2	32.2	32.2	96	31.2	1	6	112	0.00	29.812 
12:10	32.2	32.2	32.2	96	31.2	1	3	90	0.00	29.812 
12:15	32.2	32.2	32.2	96	31.2	1	4	68	0.00	29.797 
12:20	32.2	32.2	32.2	96	31.2	1	4	68	0.00	29.797 
12:25	32.2	32.2	32.2	96	31.2	1	2	45	0.00	29.797 
12:30	32.2	32.2	32.2	96	31.2	0	2	0	0.00	29.789 
12:35	32.2	32.2	32.2	96	31.2	1	3	45	0.00	29.789 
12:40	32.2	32.2	32.2	96	31.2	0	3	45	0.01	29.789 
12:45	32.2	32.2	32.2	96	31.2	0	2	45	0.00	29.779 
12:50	32.4	32.4	32.4	96	31.4	0	2	45	0.00	29.779 
12:55	32.4	32.4	32.4	96	31.4	0	2	45	0.00	29.779 
13:00	32.4	32.4	32.4	96	31.4	1	4	45	0.00	29.774 
13:05	32.4	32.4	32.4	96	31.4	0	2	112	0.01	29.774 
13:10	32.4	32.4	32.4	96	31.4	0	1	112	0.00	29.774 
13:15	32.4	32.4	32.4	96	31.4	0	1	112	0.00	29.771 
13:20	32.5	32.5	32.5	96	31.5	0	2	112	0.01	29.771 
13:25	32.5	32.5	32.5	96	31.5	0	3	112	0.00	29.771 
13:30	32.5	32.5	32.5	96	31.5	0	2	45	0.00	29.753 
13:35	32.5	32.5	32.5	96	31.5	0	2	112	0.01	29.753 
13:40	32.5	32.5	32.5	96	31.5	0	2	112	0.00	29.753 
13:45	32.7	32.7	32.7	96	31.7	0	1	112	0.01	29.744 
13:50	32.7	32.7	32.7	96	31.7	0	3	112	0.01	29.744 
13:55	32.7	32.7	32.7	96	31.7	0	2	112	0.01	29.744 
14:00	32.7	32.7	32.7	96	31.7	0	2	112	0.02	29.744 
14:05	32.7	32.7	32.7	96	31.7	0	2	112	0.02	29.744 
14:10	32.7	32.7	32.7	96	31.7	0	2	112	0.01	29.744 
14:15	32.8	32.8	32.8	96	31.8	0	2	112	0.03	29.737 
14:20	32.8	32.8	32.8	96	31.8	0	3	112	0.02	29.737 
14:25	32.8	32.8	32.8	96	31.8	0	2	112	0.02	29.737 
14:30	32.8	32.8	32.8	96	31.8	1	3	112	0.01	29.727 
14:35	32.9	32.9	32.9	96	31.9	0	3	112	0.00	29.727 
14:40	32.9	32.9	32.9	96	31.9	0	1	112	0.00	29.727 
14:45	32.9	32.9	32.9	96	31.9	0	2	112	0.00	29.724 
14:50	32.9	32.9	32.9	96	31.9	0	2	112	0.01	29.724 
14:55	33.1	33.1	33.1	96	32.1	0	2	112	0.00	29.724 
15:00	33.1	33.1	33.1	96	32.1	0	2	112	0.00	29.726 
15:05	33.1	33.1	33.1	96	32.1	0	2	112	0.00	29.726 
15:10	33.1	33.1	33.1	96	32.1	1	3	112	0.00	29.726 
15:15	33.1	33.1	33.1	96	32.1	1	3	112	0.00	29.725 
15:20	33.2	33.2	33.2	96	32.2	1	3	112	0.00	29.725 
15:25	33.2	33.2	33.2	96	32.2	1	3	112	0.00	29.725 
15:30	33.2	33.2	33.2	96	32.2	1	3	112	0.00	29.709 
15:35	33.2	33.2	33.2	96	32.2	1	3	112	0.00	29.709 
15:40	33.2	33.2	33.2	96	32.2	0	2	112	0.01	29.709 
15:45	33.2	33.2	33.2	96	32.2	1	3	112	0.01	29.705 
15:50	33.2	33.2	33.2	96	32.2	1	5	112	0.00	29.705 
15:55	33.2	33.2	33.2	96	32.2	2	6	90	0.01	29.705 
16:00	33.2	33.2	33.2	96	32.2	2	4	90	0.00	29.694 
16:05	33.2	33.2	33.2	96	32.2	1	5	90	0.00	29.694 
16:10	33.2	33.2	33.2	96	32.2	2	4	90	0.00	29.694 
16:15	33.2	33.2	33.2	96	32.2	1	5	90	0.00	29.680 
16:20	33.2	33.2	33.2	96	32.2	1	6	90	0.00	29.680 
16:25	33.2	33.2	33.2	96	32.2	2	5	90	0.01	29.680 
16:30	33.2	33.2	33.2	96	32.2	2	5	90	0.00	29.665 
16:35	33.2	33.2	33.2	96	32.2	1	3	90	0.00	29.665 
16:40	33.2	33.2	33.2	96	32.2	3	7	90	0.00	29.665 
16:45	33.1	33.1	33.1	96	32.1	2	4	112	0.00	29.661 
16:50	33.1	33.1	33.1	96	32.1	1	3	112	0.00	29.661 
16:55	33.1	33.1	33.1	96	32.1	2	5	112	0.00	29.661 
17:00	33.1	33.1	33.1	96	32.1	2	7	90	0.00	29.653 
17:05	33.1	33.1	33.1	96	32.1	1	3	112	0.00	29.653 
17:10	33.1	33.1	33.1	96	32.1	2	7	112	0.00	29.653 
17:15	33.1	33.1	33.1	96	32.1	1	5	112	0.00	29.658 
17:20	33.1	33.1	33.1	96	32.1	1	4	112	0.00	29.658 
17:25	33.1	33.1	33.1	96	32.1	1	4	112	0.00	29.658 
17:30	33.1	33.1	33.1	96	32.1	1	4	112	0.00	29.657 
17:35	33.1	33.1	33.1	96	32.1	1	5	112	0.00	29.657 
17:40	33.1	33.1	33.1	96	32.1	1	5	112	0.00	29.657 
17:45	33.1	33.1	33.1	96	32.1	2	4	112	0.00	29.647 
17:50	33.1	33.1	33.1	96	32.1	1	4	112	0.01	29.647 
17:55	33.1	33.1	33.1	96	32.1	1	3	112	0.00	29.647 
18:00	33.1	33.1	33.1	96	32.1	1	3	112	0.00	29.647 
18:05	33.2	33.2	33.2	96	32.2	1	3	112	0.00	29.647 
18:10	33.2	33.2	33.2	96	32.2	1	3	112	0.00	29.647 
18:15	33.2	33.2	33.2	96	32.2	2	5	112	0.00	29.641 
18:20	33.2	33.2	33.2	96	32.2	1	3	90	0.00	29.641 
18:25	33.2	33.2	33.2	96	32.2	1	3	90	0.01	29.641 
18:30	33.2	33.2	33.2	96	32.2	2	3	90	0.00	29.641 
18:35	33.2	33.2	33.2	96	32.2	2	4	90	0.00	29.641 
18:40	33.2	33.2	33.2	96	32.2	1	2	90	0.00	29.641 
18:45	33.2	33.2	33.2	96	32.2	1	3	90	0.00	29.637 
18:50	33.2	33.2	33.2	96	32.2	0	3	90	0.00	29.637 
18:55	33.2	33.2	33.2	96	32.2	1	3	90	0.00	29.637 
19:00	33.1	33.1	33.1	96	32.1	0	1	90	0.00	29.645 
19:05	33.1	33.1	33.1	96	32.1	0	0	---	0.00	29.645 
19:10	33.1	33.1	33.1	96	32.1	0	0	---	0.01	29.645 
19:15	33.1	33.1	33.1	96	32.1	0	0	---	0.00	29.641 
19:20	33.1	33.1	33.1	96	32.1	0	0	---	0.01	29.641 
19:25	33.1	33.1	33.1	96	32.1	0	1	90	0.00	29.641 
19:30	33.1	33.1	33.1	96	32.1	0	0	---	0.00	29.631 
19:35	33.1	33.1	33.1	96	32.1	0	0	---	0.01	29.631 
19:40	33.1	33.1	33.1	96	32.1	0	1	90	0.00	29.631 
19:45	33.2	33.2	33.2	96	32.2	0	1	90	0.00	29.639 
19:50	33.2	33.2	33.2	96	32.2	0	1	90	0.00	29.639 
19:55	33.2	33.2	33.2	96	32.2	0	1	90	0.00	29.639 
20:00	33.1	33.1	33.1	96	32.1	0	1	90	0.00	29.622 
20:05	33.1	33.1	33.1	96	32.1	0	2	90	0.00	29.622 
20:10	33.1	33.1	33.1	96	32.1	0	1	90	0.00	29.622 
20:15	33.1	33.1	33.1	96	32.1	0	1	90	0.00	29.612 
20:20	33.1	33.1	33.1	96	32.1	0	1	90	0.01	29.612 
20:25	33.1	33.1	33.1	96	32.1	0	1	90	0.00	29.612 
20:30	33.1	33.1	33.1	96	32.1	0	1	90	0.00	29.599 
20:35	32.9	32.9	32.9	96	31.9	0	1	90	0.00	29.599 
20:40	32.9	32.9	32.9	96	31.9	0	1	90	0.00	29.599 
20:45	32.9	32.9	32.9	96	31.9	0	1	90	0.00	29.607 
20:50	32.9	32.9	32.9	96	31.9	0	1	90	0.00	29.607 
20:55	33.1	33.1	33.1	96	32.1	0	2	90	0.00	29.607 
21:00	33.1	33.1	33.1	96	32.1	0	1	90	0.00	29.605 
21:05	33.1	33.1	33.1	96	32.1	0	0	---	0.00	29.605 
21:10	33.1	33.1	33.1	96	32.1	0	1	90	0.00	29.605 
21:15	33.1	33.1	33.1	96	32.1	0	1	90	0.00	29.596 
21:20	32.9	32.9	32.9	96	31.9	0	0	---	0.00	29.596 
21:25	32.9	32.9	32.9	96	31.9	0	1	90	0.00	29.596 
21:30	32.9	32.9	32.9	96	31.9	0	1	90	0.00	29.582 
21:35	32.9	32.9	32.9	96	31.9	0	1	90	0.00	29.582 
21:40	32.9	32.9	32.9	96	31.9	0	1	90	0.00	29.582 
21:45	32.9	32.9	32.9	96	31.9	0	1	90	0.00	29.576 
21:50	32.9	32.9	32.9	96	31.9	0	2	90	0.00	29.576 
21:55	32.9	32.9	32.9	96	31.9	0	0	---	0.00	29.576 
22:00	32.9	32.9	32.9	96	31.9	0	1	90	0.00	29.576 
22:05	32.9	32.9	32.9	96	31.9	0	1	90	0.00	29.576 
22:10	32.9	32.9	32.9	96	31.9	0	1	90	0.00	29.576 
22:15	32.9	32.9	32.9	96	31.9	0	1	90	0.00	29.571 
22:20	32.9	32.9	32.9	96	31.9	0	1	90	0.00	29.571 
22:25	32.9	32.9	32.9	96	31.9	0	1	90	0.01	29.571 
22:30	32.9	32.9	32.9	96	31.9	0	1	90	0.00	29.565 
22:35	32.9	32.9	32.9	96	31.9	0	2	90	0.01	29.565 
22:40	32.9	32.9	32.9	96	31.9	0	0	---	0.00	29.565 
22:45	32.9	32.9	32.9	96	31.9	0	1	90	0.00	29.568 
22:50	33.1	33.1	33.1	96	32.1	0	2	90	0.00	29.568 
22:55	33.1	33.1	33.1	96	32.1	0	2	90	0.00	29.568 
23:00	33.1	33.1	33.1	96	32.1	1	2	90	0.00	29.562 
23:05	32.9	32.9	32.9	96	31.9	0	2	90	0.00	29.562 
23:10	32.9	32.9	32.9	96	31.9	1	3	90	0.01	29.562 
23:15	33.1	33.1	33.1	96	32.1	0	2	270	0.00	29.561 
23:20	33.1	33.1	33.1	96	32.1	0	2	270	0.00	29.561 
23:25	33.1	33.1	33.1	96	32.1	0	2	270	0.00	29.561 
23:30	33.1	33.1	33.1	96	32.1	0	2	270	0.00	29.566 
23:35	33.1	33.1	33.1	96	32.1	0	2	270	0.00	29.566 
23:40	33.1	33.1	33.1	96	32.1	0	1	270	0.00	29.566 
23:45	33.1	33.1	33.1	96	32.1	0	1	270	0.00	29.578 
23:50	33.1	33.1	33.1	96	32.1	0	2	270	0.00	29.578 
23:55	33.2	33.2	33.2	96	32.2	0	1	270	0.00	29.578 

CoCoRaHS
IN-AL-39
A2 Web Hosting
Creative Commons License
GoDaddy
search engine by freefind advanced

loaded 2018-11-17 22:32:26 • last modified 2010-11-18 10:43:29
Privacy PolicyDisclaimer
• wx.awcolley.com is powered by PmWiki v.2002016 •
• all content (unless otherwise noted) © 2018 A W Colley